Weather History for KGBG - July, 2013

Change the Weather History Date:

Thursday, July 4, 2013

  Actual Average Record
Temperature  
Mean Temperature 72 °F -  
Max Temperature 84 °F 83 °F 97 °F (1990)
Min Temperature 59 °F 64 °F 47 °F (1967)
Cooling Degree Days 6    
Growing Degree Days 22 (Base 50)    
Moisture  
Dew Point 58 °F    
Average Humidity 63    
Maximum Humidity 91    
Minimum Humidity 37    
Precipitation  
Precipitation 0.00 in - - ()
Sea Level Pressure  
Sea Level Pressure 30.05 in    
Wind  
Wind Speed 4 mph (SSE)    
Max Wind Speed 10 mph    
Max Gust Speed -    
Visibility 10 miles    
Events      
Averages and records for this station are not official NWS values.
T = Trace of Precipitation, MM = Missing Value Source: NWS Daily Summary

Daily Weather History Graph

Daily Weather History Graph

Search for Another Location

Airport or City:

Trip Planner

Search our weather history database for the weather conditions in past years. The results will help you decide how hot, cold, wet, or windy it might be!

Date:

Astronomy

Jul. 04, 2013 Rise Set
Actual Time 5:35 AM CDT 8:36 PM CDT
Civil Twilight 5:02 AM CDT 9:10 PM CDT
Nautical Twilight 4:19 AM CDT 9:52 PM CDT
Astronomical Twilight 3:30 AM CDT 10:41 PM CDT
Moon 2:52 AM CDT (7/4) 5:40 PM CDT (7/4)
Length of Visible Light 16h 08m
Length of Day
15h 01m
Waning Crescent, 11% of the Moon is Illuminated
Jul 4
Waning Crescent
Jul 8
New
Jul 15
First Quarter
Jul 22
Full
Jul 29
Last Quarter

Hourly Weather History & Observations

Time (CDT) Temp. Heat Index Dew Point Humidity Pressure Visibility Wind Dir Wind Speed Gust Speed Precip Events Conditions
12:15 AM 59.0 °F - 54.9 °F 86% 30.05 in 10.0 mi Calm Calm - N/A   Clear
12:35 AM 60.6 °F - 53.6 °F 78% 30.06 in 10.0 mi East 3.5 mph - N/A   Clear
12:55 AM 62.1 °F - 53.6 °F 74% 30.06 in 10.0 mi Calm Calm - N/A   Clear
1:15 AM 59.7 °F - 54.3 °F 82% 30.06 in 10.0 mi East 3.5 mph - N/A   Clear
1:35 AM 61.5 °F - 53.6 °F 75% 30.06 in 10.0 mi East 3.5 mph - N/A   Clear
1:55 AM 62.6 °F - 54.1 °F 74% 30.05 in 10.0 mi SE 3.5 mph - N/A   Scattered Clouds
2:15 AM 62.2 °F - 54.9 °F 77% 30.05 in 10.0 mi SE 3.5 mph - N/A   Scattered Clouds
2:35 AM 61.7 °F - 55.6 °F 80% 30.05 in 10.0 mi SE 3.5 mph - N/A   Clear
2:55 AM 61.5 °F - 55.9 °F 82% 30.05 in 10.0 mi SE 3.5 mph - N/A   Clear
3:15 AM 61.7 °F - 56.3 °F 82% 30.05 in 10.0 mi ESE 3.5 mph - N/A   Clear
3:35 AM 61.5 °F - 56.7 °F 84% 30.05 in 10.0 mi SE 4.6 mph - N/A   Clear
3:55 AM 62.6 °F - 57.2 °F 82% 30.05 in 10.0 mi SE 3.5 mph - N/A   Scattered Clouds
4:15 AM 61.9 °F - 57.2 °F 85% 30.05 in 10.0 mi SE 4.6 mph - N/A   Clear
4:35 AM 61.2 °F - 57.2 °F 87% 30.05 in 10.0 mi SSE 3.5 mph - N/A   Clear
4:55 AM 60.4 °F - 57.0 °F 88% 30.05 in 10.0 mi Calm Calm - N/A   Clear
5:15 AM 60.8 °F - 57.2 °F 88% 30.05 in 10.0 mi South 4.6 mph - N/A   Clear
5:35 AM 60.6 °F - 57.6 °F 90% 30.05 in 10.0 mi South 4.6 mph - N/A   Clear
5:55 AM 60.4 °F - 57.9 °F 91% 30.06 in 10.0 mi SSE 4.6 mph - N/A   Clear
6:15 AM 61.0 °F - 58.1 °F 90% 30.06 in 7.0 mi South 3.5 mph - N/A   Clear
6:35 AM 61.5 °F - 59.0 °F 91% 30.06 in 7.0 mi Calm Calm - N/A   Clear
6:55 AM 63.1 °F - 59.0 °F 86% 30.07 in 7.0 mi Calm Calm - N/A   Clear
7:15 AM 64.9 °F - 60.3 °F 85% 30.08 in 7.0 mi Calm Calm - N/A   Clear
7:35 AM 67.1 °F - 61.0 °F 81% 30.08 in 10.0 mi South 4.6 mph - N/A   Clear
7:55 AM 68.0 °F - 61.2 °F 79% 30.09 in 10.0 mi South 4.6 mph - N/A   Clear
8:15 AM 69.4 °F - 61.7 °F 76% 30.09 in 10.0 mi South 5.8 mph - N/A   Clear
8:35 AM 71.1 °F - 61.5 °F 72% 30.09 in 10.0 mi Calm Calm - N/A   Clear
8:55 AM 72.0 °F - 61.5 °F 70% 30.09 in 10.0 mi South 5.8 mph - N/A   Clear
9:15 AM 72.9 °F - 61.5 °F 67% 30.09 in 10.0 mi SSW 5.8 mph - N/A   Clear
9:35 AM 73.6 °F - 62.4 °F 68% 30.09 in 10.0 mi SSW 4.6 mph - N/A   Clear
9:55 AM 75.2 °F - 62.8 °F 65% 30.09 in 10.0 mi SSW 5.8 mph - N/A   Clear
10:15 AM 76.3 °F - 62.2 °F 62% 30.09 in 10.0 mi SSW 5.8 mph - N/A   Clear
10:35 AM 77.0 °F - 62.4 °F 61% 30.08 in 10.0 mi SSW 4.6 mph - N/A   Clear
10:55 AM 78.3 °F - 61.2 °F 56% 30.08 in 10.0 mi WSW 4.6 mph - N/A   Clear
11:15 AM 79.0 °F - 59.2 °F 51% 30.08 in 10.0 mi South 6.9 mph - N/A   Clear
11:35 AM 80.2 °F 80.6 °F 57.7 °F 46% 30.08 in 10.0 mi SSW 4.6 mph - N/A   Clear
11:55 AM 80.2 °F 80.5 °F 57.2 °F 45% 30.08 in 10.0 mi Calm Calm - N/A   Clear
12:15 PM 81.3 °F 81.4 °F 58.1 °F 45% 30.07 in 10.0 mi WSW 5.8 mph - N/A   Clear
12:35 PM 81.9 °F 81.6 °F 56.8 °F 42% 30.07 in 10.0 mi South 5.8 mph - N/A   Clear
12:55 PM 81.9 °F 81.4 °F 55.9 °F 41% 30.07 in 10.0 mi South 5.8 mph - N/A   Clear
1:15 PM 82.0 °F 81.5 °F 55.8 °F 40% 30.07 in 10.0 mi SSW 6.9 mph - N/A   Clear
1:35 PM 82.0 °F 81.7 °F 56.8 °F 42% 30.07 in 10.0 mi South 9.2 mph - N/A   Scattered Clouds
1:55 PM 82.4 °F 81.9 °F 56.7 °F 41% 30.06 in 10.0 mi SW 5.8 mph - N/A   Scattered Clouds
2:15 PM 83.3 °F 82.6 °F 56.5 °F 40% 30.06 in 10.0 mi SSE 10.4 mph - N/A   Scattered Clouds
2:35 PM 82.4 °F 81.8 °F 55.6 °F 40% 30.06 in 10.0 mi South 3.5 mph - N/A   Scattered Clouds
2:55 PM 82.9 °F 82.0 °F 54.7 °F 38% 30.05 in 10.0 mi SSW 8.1 mph - N/A   Mostly Cloudy
3:15 PM 83.7 °F 82.8 °F 55.9 °F 39% 30.05 in 10.0 mi SSE 8.1 mph - N/A   Scattered Clouds
3:35 PM 84.0 °F 83.3 °F 57.4 °F 40% 30.04 in 10.0 mi SSW 6.9 mph - N/A   Scattered Clouds
3:55 PM 82.2 °F 82.0 °F 57.7 °F 43% 30.04 in 10.0 mi SSE 8.1 mph - N/A   Scattered Clouds
4:15 PM 82.9 °F 82.3 °F 56.3 °F 40% 30.04 in 10.0 mi South 9.2 mph - N/A   Scattered Clouds
4:35 PM 82.8 °F 82.0 °F 55.4 °F 39% 30.04 in 10.0 mi South 5.8 mph - N/A   Scattered Clouds
4:55 PM 82.9 °F 82.1 °F 55.8 °F 39% 30.03 in 10.0 mi South 8.1 mph - N/A   Clear
5:15 PM 83.1 °F 82.1 °F 54.5 °F 37% 30.03 in 10.0 mi SSE 4.6 mph - N/A   Clear
5:35 PM 82.8 °F 81.9 °F 55.0 °F 38% 30.02 in 10.0 mi South 8.1 mph - N/A   Scattered Clouds
5:55 PM 82.8 °F 82.1 °F 56.3 °F 40% 30.02 in 10.0 mi South 6.9 mph - N/A   Scattered Clouds
6:15 PM 81.0 °F 81.0 °F 57.4 °F 44% 30.01 in 10.0 mi SE 4.6 mph - N/A   Scattered Clouds
6:35 PM 81.5 °F 81.6 °F 58.3 °F 45% 30.01 in 10.0 mi SE 3.5 mph - N/A   Clear
6:55 PM 80.6 °F 80.8 °F 57.7 °F 45% 30.02 in 10.0 mi South 5.8 mph - N/A   Scattered Clouds
7:15 PM 78.8 °F - 58.5 °F 50% 30.02 in 10.0 mi South 4.6 mph - N/A   Clear
7:35 PM 78.6 °F - 59.4 °F 51% 30.02 in 10.0 mi Calm Calm - N/A   Clear
7:55 PM 77.5 °F - 59.2 °F 53% 30.02 in 10.0 mi Calm Calm - N/A   Clear
8:15 PM 76.5 °F - 59.0 °F 55% 30.02 in 10.0 mi Calm Calm - N/A   Clear
8:35 PM 75.9 °F - 57.7 °F 53% 30.02 in 10.0 mi Calm Calm - N/A   Clear
8:55 PM 74.5 °F - 58.1 °F 57% 30.02 in 10.0 mi SE 3.5 mph - N/A   Clear
9:15 PM 73.8 °F - 58.8 °F 59% 30.03 in 10.0 mi SE 3.5 mph - N/A   Scattered Clouds
9:35 PM 73.4 °F - 59.9 °F 63% 30.03 in 10.0 mi SE 4.6 mph - N/A   Scattered Clouds
9:55 PM 72.5 °F - 60.1 °F 65% 30.04 in 10.0 mi SE 3.5 mph - N/A   Clear
10:15 PM 71.8 °F - 60.4 °F 67% 30.04 in 10.0 mi SSE 4.6 mph - N/A   Clear
10:35 PM 71.2 °F - 60.4 °F 69% 30.05 in 10.0 mi SE 4.6 mph - N/A   Clear
10:55 PM 70.2 °F - 60.4 °F 71% 30.05 in 10.0 mi SE 3.5 mph - N/A   Clear
11:15 PM 69.8 °F - 60.4 °F 72% 30.05 in 10.0 mi SE 3.5 mph - N/A   Clear
11:35 PM 69.6 °F - 60.4 °F 73% 30.05 in 10.0 mi SE 4.6 mph - N/A   Clear
11:55 PM 68.9 °F - 60.6 °F 75% 30.04 in 10.0 mi ESE 3.5 mph - N/A   Clear